Time,TemperatureF,DewpointF,PressureIn,WindDirection,WindDirectionDegrees,WindSpeedMPH,WindSpeedGustMPH,Humidity,HourlyPrecipIn,Conditions,Clouds,dailyrainin,SolarRadiationWatts/m^2,SoftwareType,DateUTC
2013-06-03 00:00:00,55.0,47.0,29.86,ESE,111,11.0,-999.0,73,-99.99,,,-99.99,0.150000,,2013-06-03 06:00:00,
2013-06-03 00:52:00,55.0,47.0,29.86,ESE,111,11.0,-999.0,73,-99.99,,,-99.99,0.150000,,2013-06-03 06:52:00,
2013-06-03 02:00:00,52.0,45.0,29.74,East,95,19.0,-999.0,77,-99.99,,,-99.99,0.100000,,2013-06-03 08:00:00,
2013-06-03 02:52:00,52.0,45.0,29.74,East,95,19.0,-999.0,77,-99.99,,,-99.99,0.100000,,2013-06-03 08:52:00,
2013-06-03 03:00:00,50.0,46.0,29.76,ESE,108,17.0,-999.0,86,-99.99,,,-99.99,0.100000,,2013-06-03 09:00:00,
2013-06-03 03:53:00,50.0,46.0,29.76,ESE,108,17.0,-999.0,86,-99.99,,,-99.99,0.100000,,2013-06-03 09:53:00,
2013-06-03 04:00:00,50.0,47.0,29.74,ESE,110,15.0,-999.0,92,-99.99,,,-99.99,0.100000,,2013-06-03 10:00:00,
2013-06-03 04:52:00,50.0,47.0,29.74,ESE,110,15.0,-999.0,92,-99.99,,,-99.99,0.100000,,2013-06-03 10:52:00,
2013-06-03 05:00:00,48.0,46.0,29.68,ESE,108,18.0,-999.0,93,-99.99,,,-99.99,0.170000,,2013-06-03 11:00:00,
2013-06-03 05:52:00,48.0,46.0,29.68,ESE,108,18.0,-999.0,93,-99.99,,,-99.99,0.170000,,2013-06-03 11:52:00,
2013-06-03 06:00:00,48.0,46.0,29.71,East,99,20.0,-999.0,91,-99.99,,,-99.99,12.270000,,2013-06-03 12:00:00,
2013-06-03 06:52:00,48.0,46.0,29.71,East,99,20.0,-999.0,91,-99.99,,,-99.99,12.270000,,2013-06-03 12:52:00,
2013-06-03 07:00:00,48.0,45.0,29.74,ESE,106,17.0,-999.0,92,-99.99,,,-99.99,16.760000,,2013-06-03 13:00:00,
2013-06-03 07:53:00,48.0,45.0,29.74,ESE,106,17.0,-999.0,92,-99.99,,,-99.99,16.760000,,2013-06-03 13:53:00,
2013-06-03 08:00:00,47.0,46.0,29.70,East,101,18.0,-999.0,96,-99.99,,,-99.99,4.450000,,2013-06-03 14:00:00,
2013-06-03 08:52:00,47.0,46.0,29.70,East,101,18.0,-999.0,96,-99.99,,,-99.99,4.450000,,2013-06-03 14:52:00,
2013-06-03 09:00:00,46.0,46.0,29.70,ESE,107,15.0,-999.0,98,-99.99,,,-99.99,15.360000,,2013-06-03 15:00:00,
2013-06-03 09:53:00,46.0,46.0,29.70,ESE,107,15.0,-999.0,98,-99.99,,,-99.99,15.360000,,2013-06-03 15:53:00,
2013-06-03 10:00:00,47.0,47.0,29.71,ESE,103,12.0,-999.0,99,-99.99,,,-99.99,24.750000,,2013-06-03 16:00:00,
2013-06-03 10:53:00,47.0,47.0,29.71,ESE,103,12.0,-999.0,99,-99.99,,,-99.99,24.750000,,2013-06-03 16:53:00,
2013-06-03 11:00:00,48.0,48.0,29.71,ESE,107,12.0,-999.0,99,-99.99,,,-99.99,63.990002,,2013-06-03 17:00:00,
2013-06-03 11:52:00,48.0,48.0,29.71,ESE,107,12.0,-999.0,99,-99.99,,,-99.99,63.990002,,2013-06-03 17:52:00,
2013-06-03 12:00:00,49.0,49.0,29.70,ESE,102,12.0,-999.0,99,-99.99,,,-99.99,107.500000,,2013-06-03 18:00:00,
2013-06-03 12:53:00,49.0,49.0,29.70,ESE,102,12.0,-999.0,99,-99.99,,,-99.99,107.500000,,2013-06-03 18:53:00,
2013-06-03 13:00:00,50.0,49.0,29.72,ESE,105,11.0,-999.0,99,-99.99,,,-99.99,116.500000,,2013-06-03 19:00:00,
2013-06-03 13:53:00,50.0,49.0,29.72,ESE,105,11.0,-999.0,99,-99.99,,,-99.99,116.500000,,2013-06-03 19:53:00,
2013-06-03 14:00:00,51.0,51.0,29.71,East,97,10.0,-999.0,99,-99.99,,,-99.99,130.899994,,2013-06-03 20:00:00,
2013-06-03 14:52:00,51.0,51.0,29.71,East,97,10.0,-999.0,99,-99.99,,,-99.99,130.899994,,2013-06-03 20:52:00,
2013-06-03 15:00:00,53.0,52.0,29.72,East,96,12.0,-999.0,96,-99.99,,,-99.99,219.300003,,2013-06-03 21:00:00,
2013-06-03 15:53:00,53.0,52.0,29.72,East,96,12.0,-999.0,96,-99.99,,,-99.99,219.300003,,2013-06-03 21:53:00,
2013-06-03 16:00:00,48.0,47.0,29.73,SSE,151,7.0,-999.0,96,-99.99,,,-99.99,54.410000,,2013-06-03 22:00:00,
2013-06-03 16:53:00,48.0,47.0,29.73,SSE,151,7.0,-999.0,96,-99.99,,,-99.99,54.410000,,2013-06-03 22:53:00,
2013-06-03 17:00:00,50.0,48.0,29.74,NE,56,6.0,-999.0,94,-99.99,,,-99.99,141.300003,,2013-06-03 23:00:00,
2013-06-03 17:52:00,50.0,48.0,29.74,NE,56,6.0,-999.0,94,-99.99,,,-99.99,141.300003,,2013-06-03 23:52:00,
2013-06-03 18:00:00,50.0,49.0,29.74,NE,55,5.0,-999.0,93,-99.99,,,-99.99,121.300003,,2013-06-04 00:00:00,
2013-06-03 18:52:00,50.0,49.0,29.74,NE,55,5.0,-999.0,93,-99.99,,,-99.99,121.300003,,2013-06-04 00:52:00,
2013-06-03 19:00:00,51.0,49.0,29.74,ENE,58,6.0,-999.0,94,-99.99,,,-99.99,82.400002,,2013-06-04 01:00:00,
2013-06-03 19:53:00,51.0,49.0,29.74,ENE,58,6.0,-999.0,94,-99.99,,,-99.99,82.400002,,2013-06-04 01:53:00,
2013-06-03 20:00:00,49.0,46.0,29.76,West,262,5.0,-999.0,92,-99.99,,,-99.99,18.809999,,2013-06-04 02:00:00,
2013-06-03 20:52:00,49.0,46.0,29.76,West,262,5.0,-999.0,92,-99.99,,,-99.99,18.809999,,2013-06-04 02:52:00,
2013-06-03 21:00:00,48.0,46.0,29.78,WNW,297,3.0,-999.0,95,-99.99,,,-99.99,4.010000,,2013-06-04 03:00:00,
2013-06-03 21:54:00,48.0,46.0,29.78,WNW,297,3.0,-999.0,95,-99.99,,,-99.99,4.010000,,2013-06-04 03:54:00,
2013-06-03 22:00:00,47.0,46.0,29.80,NW,321,5.0,-999.0,97,-99.99,,,-99.99,0.150000,,2013-06-04 04:00:00,
2013-06-03 22:53:00,47.0,46.0,29.80,NW,321,5.0,-999.0,97,-99.99,,,-99.99,0.150000,,2013-06-04 04:53:00,
2013-06-03 23:00:00,47.0,47.0,29.82,North,355,7.0,-999.0,98,-99.99,,,-99.99,0.070000,,2013-06-04 05:00:00,
2013-06-03 23:52:00,47.0,47.0,29.82,North,355,7.0,-999.0,98,-99.99,,,-99.99,0.070000,,2013-06-04 05:52:00,